Weather History for Burlington, WA

Change the Weather History Date:

Sunday, December 8, 2013

  Actual Average Record
Temperature  
Mean Temperature 26 °F -  
Max Temperature 32 °F 45 °F 58 °F (1957)
Min Temperature 21 °F 35 °F 9 °F (1972)
Degree Days  
Heating Degree Days 38    
Moisture  
Dew Point 17 °F    
Average Humidity 67    
Maximum Humidity 80    
Minimum Humidity 51    
Precipitation  
Precipitation 0.00 in - - ()
Sea Level Pressure  
Sea Level Pressure 30.52 in    
Wind  
Wind Speed 2 mph (ENE)    
Max Wind Speed 6 mph    
Max Gust Speed -    
Visibility 10 miles    
Events      
Averages and records for this station are not official NWS values.
T = Trace of Precipitation, MM = Missing Value Source: NWS Daily Summary

Daily Weather History Graph

Daily Weather History Graph

Search for Another Location

Airport:

Trip Planner

Search our weather history database for the weather conditions in past years. The results will help you decide how hot, cold, wet, or windy it might be!

Date:

Astronomy

Dec. 08, 2013 Rise Set
Actual Time 7:48 AM PST 4:14 PM PST
Civil Twilight 7:12 AM PST 4:51 PM PST
Nautical Twilight 6:32 AM PST 5:30 PM PST
Astronomical Twilight 5:54 AM PST 6:08 PM PST
Moon 11:48 AM PST (12/8) 11:36 PM PST (12/8)
Length of Visible Light 9h 38m
Length of Day
8h 25m
Waxing Crescent, 41% of the Moon is Illuminated
Dec 8
Waxing Crescent
Dec 9
First Quarter
Dec 17
Full
Dec 25
Last Quarter
Jan 1
New

Hourly Weather History & Observations

Time (PST) Temp. Windchill Dew Point Humidity Pressure Visibility Wind Dir Wind Speed Gust Speed Precip Events Conditions
2:55 AM 21.2 °F - 14.0 °F 74% 30.46 in 10.0 mi Calm Calm - 0.00 in   Overcast
3:55 AM 23.0 °F 15.8 °F 14.0 °F 68% 30.47 in 10.0 mi NE 5.8 mph - 0.00 in   Mostly Cloudy
4:35 AM 23.0 °F 17.0 °F 14.0 °F 68% 30.47 in 10.0 mi NE 4.6 mph - 0.00 in   Mostly Cloudy
5:15 AM 23.0 °F - 14.0 °F 68% 30.47 in 10.0 mi Calm Calm - 0.00 in   Overcast
5:35 AM 23.0 °F 18.4 °F 15.8 °F 74% 30.48 in 10.0 mi ENE 3.5 mph - 0.00 in   Mostly Cloudy
6:15 AM 23.0 °F - 14.0 °F 68% 30.49 in 10.0 mi Calm Calm - 0.00 in   Overcast
6:35 AM 23.0 °F - 14.0 °F 68% 30.49 in 10.0 mi Calm Calm - 0.00 in   Overcast
6:55 AM 23.0 °F - 15.8 °F 74% 30.49 in 10.0 mi Calm Calm - 0.00 in   Overcast
7:15 AM 23.0 °F - 15.8 °F 74% 30.49 in 10.0 mi Calm Calm - 0.00 in   Mostly Cloudy
7:35 AM 23.0 °F - 15.8 °F 74% 30.50 in 10.0 mi Calm Calm - 0.00 in   Partly Cloudy
7:55 AM 23.0 °F 17.0 °F 15.8 °F 74% 30.51 in 10.0 mi NE 4.6 mph - 0.00 in   Clear
8:35 AM 21.2 °F - 15.8 °F 80% 30.52 in 10.0 mi Calm Calm - 0.00 in   Clear
9:15 AM 23.0 °F 15.8 °F 15.8 °F 74% 30.53 in 9.0 mi NE 5.8 mph - 0.00 in   Clear
9:35 AM 24.8 °F 19.1 °F 17.6 °F 74% 30.53 in 10.0 mi NE 4.6 mph - 0.00 in   Clear
9:55 AM 26.6 °F 20.0 °F 17.6 °F 69% 30.53 in 10.0 mi NE 5.8 mph - 0.00 in   Mostly Cloudy
10:35 AM 28.4 °F 22.2 °F 15.8 °F 59% 30.54 in 10.0 mi ENE 5.8 mph - 0.00 in   Mostly Cloudy
10:55 AM 30.2 °F - 14.0 °F 51% 30.53 in 10.0 mi Calm Calm - 0.00 in   Scattered Clouds
11:15 AM 30.2 °F 26.7 °F 14.0 °F 51% 30.53 in 10.0 mi East 3.5 mph - 0.00 in   Clear
12:15 PM 30.2 °F 26.7 °F 15.8 °F 55% 30.53 in 10.0 mi SE 3.5 mph - 0.00 in   Clear
12:35 PM 32.0 °F 28.7 °F 17.6 °F 55% 30.53 in 10.0 mi SSW 3.5 mph - 0.00 in   Clear
12:55 PM 32.0 °F 28.7 °F 15.8 °F 51% 30.53 in 10.0 mi SSE 3.5 mph - 0.00 in   Clear
1:15 PM 32.0 °F 28.7 °F 15.8 °F 51% 30.52 in 10.0 mi SSE 3.5 mph - 0.00 in   Clear
1:35 PM 32.0 °F - 15.8 °F 51% 30.53 in 10.0 mi Calm Calm - 0.00 in   Clear
1:55 PM 32.0 °F - 17.6 °F 55% 30.53 in 10.0 mi Calm Calm - 0.00 in   Clear
2:15 PM 32.0 °F - 17.6 °F 55% 30.53 in 10.0 mi Calm Calm - 0.00 in   Clear
2:35 PM 32.0 °F - 17.6 °F 55% 30.53 in 10.0 mi Calm Calm - 0.00 in   Clear
2:55 PM 32.0 °F 28.7 °F 17.6 °F 55% 30.53 in 10.0 mi East 3.5 mph - 0.00 in   Clear
3:15 PM 32.0 °F 28.7 °F 17.6 °F 55% 30.53 in 10.0 mi NNE 3.5 mph - 0.00 in   Clear
3:35 PM 32.0 °F - 17.6 °F 55% 30.54 in 10.0 mi Calm Calm - 0.00 in   Clear
3:55 PM 30.2 °F - 19.4 °F 64% 30.54 in 10.0 mi Calm Calm - 0.00 in   Clear
4:15 PM 30.2 °F - 17.6 °F 60% 30.54 in 10.0 mi Calm Calm - 0.00 in   Clear
4:35 PM 28.4 °F - 19.4 °F 69% 30.55 in 10.0 mi Calm Calm - 0.00 in   Clear
4:55 PM 26.6 °F - 19.4 °F 74% 30.54 in 10.0 mi Calm Calm - 0.00 in   Clear
5:15 PM 26.6 °F - 19.4 °F 74% 30.54 in 10.0 mi Calm Calm - 0.00 in   Clear
5:35 PM 28.4 °F - 17.6 °F 64% 30.54 in 10.0 mi Calm Calm - 0.00 in   Clear
5:55 PM 26.6 °F - 19.4 °F 74% 30.54 in 10.0 mi Calm Calm - 0.00 in   Clear
6:15 PM 26.6 °F - 19.4 °F 74% 30.53 in 10.0 mi Calm Calm - 0.00 in   Clear
6:35 PM 26.6 °F - 19.4 °F 74% 30.53 in 10.0 mi Calm Calm - 0.00 in   Clear
6:55 PM 24.8 °F - 19.4 °F 80% 30.53 in 10.0 mi Calm Calm - 0.00 in   Clear
7:15 PM 26.6 °F - 17.6 °F 69% 30.54 in 10.0 mi Calm Calm - 0.00 in   Clear
7:35 PM 26.6 °F - 19.4 °F 74% 30.54 in 10.0 mi Calm Calm - 0.00 in   Clear
7:55 PM 24.8 °F - 19.4 °F 80% 30.55 in 10.0 mi Calm Calm - 0.00 in   Clear
8:15 PM 24.8 °F 20.5 °F 19.4 °F 80% 30.55 in 10.0 mi NE 3.5 mph - 0.00 in   Clear
8:55 PM 24.8 °F - 17.6 °F 74% 30.56 in 10.0 mi Calm Calm - 0.00 in   Clear
9:35 PM 23.0 °F - 17.6 °F 80% 30.58 in 10.0 mi Calm Calm - 0.00 in   Clear